#timestamp,LO_Frequency,Hit 
1500112815.1,286046981.0,N
1500112835.9,286046981.5,N
1500112855.7,286046981.5,N
1500112875.5,286046979.1,N
1500112895.4,286046981.5,N
1500112915.2,286046980.8,N
1500112935.1,286046981.6,N
1500112936.0,286046981.6,N
1500112955.8,286046981.7,N
1500112975.6,286046979.3,N
1500112995.5,286046979.4,N
1500113015.3,286046980.4,N
1500113035.1,286046980.4,N
1500113055.9,286046980.1,N
1500113075.7,286046979.5,N
1500113095.6,286046979.1,N
1500113115.4,286046979.2,N
1500113135.2,286046979.8,N
1500113155.1,286046980.3,N
1500113156.0,286046980.3,N
1500113175.8,286046977.5,N
1500113195.6,286046977.3,N
1500113215.5,286046977.8,N
1500113235.3,286046979.8,N
1500113255.2,286046980.0,N
1500113275.9,286046977.5,N
1500113295.7,286046978.3,N
1500113315.6,286046978.3,N
1500113335.4,286046977.7,N
1500113355.2,286046978.7,N
1500113375.1,286046978.6,N
1500113376.0,286046978.6,N
1500113395.8,286046978.0,N
1500113415.7,286046977.7,N
1500113435.5,286046978.2,N
1500113455.3,286046978.3,N
1500113475.2,286046978.6,N
1500113495.0,286046975.7,N
1500113495.9,286046975.7,N
1500113515.7,286046978.4,N
1500113535.6,286046978.0,N
1500113555.4,286046977.6,N
1500113575.3,286046976.4,N
1500113595.1,286046976.2,N
1500113596.0,286046976.2,N
1500113615.8,286046977.0,N
1500113635.7,286046977.2,N
1500113655.5,286046977.0,N
1500113675.3,286046978.4,N
1500113695.2,286046976.2,N
1500113715.0,286046976.9,N
1500113715.9,286046976.9,N
1500113735.8,286046976.8,N
1500113755.6,286046974.1,N
1500113775.4,286046978.5,N
1500113795.3,286046975.7,N
1500113815.1,286046976.9,N
1500113835.9,286046977.1,N
1500113855.7,286046976.9,N
1500113875.5,286046975.8,N
1500113895.4,286046976.2,N
1500113915.2,286046975.8,N
1500113935.0,286046976.5,N
1500113935.9,286046976.5,N
1500113955.8,286046978.8,N
1500113975.6,286046978.6,N
1500113995.5,286046977.1,N
1500114015.3,286046974.2,N
1500114035.1,286046976.3,N
1500114055.9,286046978.6,N
1500114075.7,286046978.2,N
1500114095.5,286046976.4,N
1500114115.4,286046976.9,N
1500114135.2,286046976.8,N
1500114155.0,286046974.6,N
1500114156.0,286046974.6,N
1500114175.8,286046974.1,N
1500114195.6,286046976.4,N
1500114215.5,286046975.9,N
1500114235.3,286046975.7,N
1500114255.1,286046974.5,N
1500114275.9,286046976.6,N
1500114295.7,286046978.4,N
1500114315.6,286046978.6,N
1500114335.4,286046977.6,N
1500114355.2,286046978.6,N
1500114375.1,286046978.5,N
1500114376.0,286046978.5,N
1500114395.8,286046978.3,N
1500114415.6,286046978.5,N
1500114435.5,286046977.9,N
1500114455.3,286046978.1,N
1500114475.2,286046977.5,N
1500114495.9,286046980.1,N
1500114515.7,286046977.3,N
1500114535.6,286046978.0,N
1500114555.4,286046977.6,N
1500114575.2,286046977.6,N
1500114595.1,286046980.4,N
1500114596.0,286046980.4,N
1500114615.8,286046977.5,N
1500114635.7,286046978.1,N
1500114655.5,286046977.5,N
1500114675.3,286046977.3,N
1500114695.2,286046980.4,N
1500114715.0,286046978.5,N
1500114715.9,286046978.5,N
1500114735.7,286046978.2,N
1500114755.6,286046978.1,N
1500114775.4,286046978.5,N
1500114795.3,286046980.4,N
1500114815.1,286046980.3,N
1500114816.0,286046980.3,N
1500114835.8,286046978.1,N
1500114855.7,286046977.0,N
1500114875.5,286046977.0,N
1500114895.3,286046976.6,N
1500114915.2,286046975.7,N
1500114935.0,286046976.1,N
1500114935.9,286046976.1,N
1500114955.8,286046976.5,N
1500114975.6,286046977.6,N
1500114995.4,286046978.5,N
1500115015.3,286046978.5,N
1500115035.1,286046975.7,N
1500115055.9,286046977.0,N
1500115075.7,286046976.1,N
1500115095.5,286046978.0,N
1500115115.4,286046978.1,N
1500115135.2,286046975.8,N
1500115155.1,286046975.8,N
1500115156.0,286046975.8,N
1500115175.8,286046976.1,N
1500115195.6,286046976.6,N
1500115215.5,286046977.2,N
1500115235.3,286046976.6,N
1500115255.1,286046978.4,N
1500115275.9,286046975.8,N
1500115295.7,286046976.4,N
1500115315.6,286046975.8,N
1500115335.4,286046976.3,N
1500115355.2,286046976.3,N
1500115375.1,286046975.9,N
1500115376.0,286046975.9,N
1500115395.8,286046975.8,N
1500115415.7,286046976.1,N
1500115435.5,286046976.1,N
1500115455.3,286046986.3,N
1500115475.2,286046976.7,N
1500115495.9,286046976.1,N
1500115515.7,286046976.1,N
1500115535.6,286046976.6,N
1500115555.4,286046974.1,N
1500115575.2,286046977.0,N
1500115595.1,286046977.1,N
1500115596.0,286046977.1,N
1500115615.8,286046974.1,N
1500115635.7,286046977.1,N
1500115655.5,286046974.8,N
1500115675.3,286046975.1,N
1500115695.2,286046975.2,N
1500115715.0,286046975.2,N
1500115715.9,286046975.2,N
1500115735.8,286046971.0,N
1500115755.6,286046971.2,N
1500115775.4,286046973.9,N
1500115795.3,286046973.5,N
1500115815.1,286046971.3,N
1500115835.8,286046970.9,N
1500115855.7,286046971.5,N
1500115875.5,286046971.5,N
1500115895.4,286046971.4,N
1500115915.2,286046972.0,N
1500115935.0,286046972.3,N
1500115935.9,286046972.3,N
1500115955.8,286046969.3,N
1500115975.6,286046972.4,N
1500115995.4,286046971.7,N
1500116015.3,286046972.2,N
1500116035.1,286046972.1,N
1500116055.9,286046973.6,N
1500116075.7,286046973.5,N
1500116095.5,286046971.5,N
1500116115.4,286046974.0,N
1500116135.2,286046973.5,N
1500116155.0,286046972.8,N
1500116156.0,286046972.8,N
1500116175.8,286046971.6,N
1500116195.6,286046972.2,N
1500116215.5,286046971.3,N
1500116235.3,286046972.3,N
1500116255.1,286046974.6,N
1500116275.9,286046973.2,N
1500116295.7,286046971.0,N
1500116315.6,286046971.5,N
1500116335.4,286046972.8,N
1500116355.2,286046975.1,N
1500116375.1,286046975.3,N
1500116376.0,286046975.3,N
1500116395.8,286046974.2,N
